Location: Buckland
(65.9785°N, 161.1281°W)
Time: 06:37:56
(UTC+00:00)

Transit 2A Rocket - Pass Details

Date: 29 November 2020
Orbit: 592 x 910 km, 66.7° (Epoch: 21 January)

Event Time Altitude Azimuth Distance (km) Brightness Sun altitude
Exits shadow 13:39:14 27° 85° (E) 1,501 6.9 -36.6°
Drops below altitude 10° 13:41:50 10° 66° (ENE) 2,309 8.2 -36.4°
Sets 13:44:15 0° 59° (ENE) 3,185 9.2 -36.2°
